Location: Borz?cin
(51.1714°N, 19.6030°E)
Time: 22:43:11
(UTC+00:00)

Cosmos 1125 Rocket - Pass Details

Date: 19 May 2025
Orbit: 753 x 776 km, 74.0° (Epoch: 16 June)

Event Time Altitude Azimuth Distance (km) Brightness Sun altitude
Rises 19:20:45 0° 336° (NNW) 3,269 8.3 -6.8°
Reaches altitude 10° 19:23:10 10° 339° (NNW) 2,338 7.3 -7.1°
Maximum altitude 19:28:28 71° 63° (ENE) 824 3.6 -7.6°
Drops below altitude 10° 19:33:44 10° 148° (SSE) 2,319 5.3 -8.2°
Enters shadow 19:33:49 10° 148° (SSE) 2,351 5.4 -8.2°
